Simultaneous Nadir Overpasses (SNOs) Predictions

Prediction of SNOs between NOAA-19 and NPP Satellite Orbit:

Table of predicted SNOs for the next 14.0 days since TLE Epoch: 1/25/2013
Index Date (NOAA-19) Time (NOAA-19) Lat,Lon (NOAA-19) SZA (NOAA-19 ) Date (NPP) Time (NPP) Lat,Lon (NPP) SZA (NPP ) Distance(km) Time Diff (sec)
1 01/28/2013 11:44:19 -80.85, 132.70 77.41 01/28/2013 11:45:34 -80.86, 132.62 77.44 1.35 75
2 01/28/2013 12:35:22 80.84, -59.67 102.53 01/28/2013 12:36:18 80.84, -59.64 102.49 0.69 56
3 01/28/2013 13:26:23 -80.84, 107.46 77.47 01/28/2013 13:27:03 -80.84, 107.60 77.51 2.54 40
4 01/28/2013 14:17:24 80.79, -84.20 102.36 01/28/2013 14:17:46 80.80, -84.31 102.36 1.95 22
5 01/28/2013 15:08:24 -80.78, 83.29 77.69 01/28/2013 15:08:30 -80.78, 83.28 77.70 0.13 6
6 01/28/2013
